"Pseudo-MPEC" for C1HCJV2

Created 2019 Dec 8 20:07:05 UT using Find_Orb

Click here for an explanation of pseudo-MPECs

 
 Astrometry: 
     C1HCJV2  C2019 12 02.25505 03 34 50.92 +34 37 19.4    ~C26q 20.6 GVNEOCPG96
     C1HCJV2  C2019 12 02.26019 03 34 42.31 +34 40 36.6    ~C26q 20.2 GVNEOCPG96
     C1HCJV2  C2019 12 02.26531 03 34 33.71 +34 43 55.0    ~C26q       VNEOCPG96
     C1HCJV2  C2019 12 02.27049 03 34 25.09 +34 47 11.1    ~C26q 20.1 GVNEOCPG96
     C1HCJV2  C2019 12 02.38319 03 31 14.69 +35 58 25.2    ~C29b 19.6 GVNEOCPI52
     C1HCJV2  C2019 12 02.38433 03 31 12.75 +35 59 07.9    ~C29b 19.9 GVNEOCPI52
     C1HCJV2  C2019 12 02.38547 03 31 10.84 +35 59 51.0    ~C29b 19.7 GVNEOCPI52
     C1HCJV2  C2019 12 02.38659 03 31 08.97 +36 00 33.2    ~C29b 19.9 GVNEOCPI52

Station data:
(G96) Mt. Lemmon Survey  (N32.442754 W110.788720)  US/Arizona.  Observers T.
   A. Pruyne, B. M. Africano, E. J. Christensen, G. A. Farneth, D. C. Fuls,
   A. R. Gibbs, A. D. Grauer, H. Gröller, J. A. Johnson, R. A. Kowalski, S.
   M. Larson, G. J. Leonard, D. Rankin, R. L. Seaman, F. C. Shelly. 1.5-m
   reflector + 10K CCD.
(I52) Steward Observatory, Mt. Lemmon Station  (N32.442547 W110.788920)
   US/Arizona.  Observers T. A. Pruyne, B. M. Africano, E. J. Christensen, G.
   A. Farneth, D. C. Fuls, A. R. Gibbs, A. D. Grauer, H. Gröller, J. A.
   Johnson, R. A. Kowalski, S. M. Larson, G. J. Leonard, D. Rankin, R. L.
   Seaman, F. C. Shelly. 1.0-m reflector + CCD.

Orbital elements:  C1HCJV2
   Perihelion 2020 Feb 10.573880 +/- 3.9 TT = 13:46:23 (JD 2458890.073880)
Epoch 2019 Dec  2.0 TT = JDT 2458819.5   Earth MOID: 0.0147   AutoNEOCP
M 294.58419873 +/- 3.4              (J2000 ecliptic)
n   0.92691235 +/- 0.0119           Peri.   80.62079 +/- 2.6
a   1.04178220 +/- 0.00895          Node    67.92205 +/- 0.14
e   0.1270380 +/- 0.0138            Incl.    9.31962 +/- 9
P   1.06/388.38d           H 28.4   G  0.15   U  9.8  
q 0.90943626 +/- 0.011    Q 1.17412813 +/- 0.0224
From 8 observations 2019 Dec. 2 (3.2 hr); mean residual 0".50
Residuals in arcseconds: 
191202 G96  .20+  .25-    191202 G96  .35+  .87-    191202 I52  .08-  .08+    
191202 G96  .09-  .42-    191202 I52  .16+  .10-    191202 I52  .06+  .23+    
191202 G96  .47-  1.6+    191202 I52  .14-  .21-    

Ephemerides (geocentric):
Date (UTC) HH   RA              Dec         delta   r     elong  mag " sig PA
---- -- -- --  -------------   -----------  ------ ------ -----  --- ---- ---
2019 12 08 20  20 05 49.728   +65 34 08.49  .02301 .98729  95.1 23.1 129d  48
2019 12 08 21  20 04 00.167   +65 26 24.17  .02311 .98721  94.9 23.1 129d  48
2019 12 08 22  20 02 12.671   +65 18 39.27  .02322 .98712  94.6 23.1 129d  47
2019 12 08 23  20 00 27.194   +65 10 53.96  .02332 .98703  94.4 23.2 129d  47
2019 12 09 00  19 58 43.692   +65 03 08.39  .02343 .98695  94.2 23.2 129d  47
2019 12 09 01  19 57 02.121   +64 55 22.71  .02354 .98686  94.0 23.2 128d  46
2019 12 09 02  19 55 22.438   +64 47 37.04  .02365 .98678  93.7 23.2 128d  46
2019 12 09 03  19 53 44.601   +64 39 51.53  .02375 .98669  93.5 23.2 128d  45
2019 12 09 04  19 52 08.568   +64 32 06.30  .02386 .98660  93.3 23.2 128d  45
2019 12 09 05  19 50 34.298   +64 24 21.48  .02397 .98652  93.1 23.3 128d  45
2019 12 09 06  19 49 01.752   +64 16 37.16  .02408 .98643  92.9 23.3 127d  44
2019 12 09 07  19 47 30.891   +64 08 53.47  .02419 .98635  92.7 23.3 127d  44
2019 12 09 08  19 46 01.677   +64 01 10.50  .02430 .98626  92.5 23.3 127d  44
2019 12 09 09  19 44 34.072   +63 53 28.35  .02441 .98617  92.3 23.3 127d  43
2019 12 09 10  19 43 08.040   +63 45 47.12  .02452 .98609  92.1 23.3 127d  43
2019 12 09 11  19 41 43.545   +63 38 06.89  .02463 .98600  91.8 23.4 127d  43
2019 12 09 12  19 40 20.552   +63 30 27.73  .02474 .98591  91.6 23.4 126d  43
2019 12 09 13  19 38 59.027   +63 22 49.74  .02485 .98583  91.4 23.4 126d  42
2019 12 09 14  19 37 38.937   +63 15 12.99  .02496 .98574  91.3 23.4 126d  42
2019 12 09 15  19 36 20.250   +63 07 37.53  .02507 .98566  91.1 23.4 126d  42
2019 12 09 16  19 35 02.933   +63 00 03.45  .02518 .98557  90.9 23.4 126d  41
2019 12 09 17  19 33 46.956   +62 52 30.80  .02530 .98549  90.7 23.5 126d  41
2019 12 09 18  19 32 32.289   +62 44 59.64  .02541 .98540  90.5 23.5 125d  41
2019 12 09 19  19 31 18.902   +62 37 30.02  .02552 .98531  90.3 23.5 125d  41
2019 12 09 20  19 30 06.765   +62 30 02.01  .02563 .98523  90.1 23.5 125d  40
2019 12 09 21  19 28 55.852   +62 22 35.64  .02575 .98514  89.9 23.5 125d  40
2019 12 09 22  19 27 46.135   +62 15 10.95  .02586 .98506  89.7 23.5 125d  40
2019 12 09 23  19 26 37.587   +62 07 48.01  .02597 .98497  89.5 23.6 125d  40
2019 12 10 00  19 25 30.182   +62 00 26.84  .02609 .98488  89.4 23.6 124d  39
2019 12 10 01  19 24 23.895   +61 53 07.48  .02620 .98480  89.2 23.6 124d  39
2019 12 10 02  19 23 18.700   +61 45 49.96  .02631 .98471  89.0 23.6 124d  39
2019 12 10 03  19 22 14.575   +61 38 34.33  .02643 .98463  88.8 23.6 124d  39
2019 12 10 04  19 21 11.494   +61 31 20.60  .02654 .98454  88.7 23.6 124d  38
2019 12 10 05  19 20 09.436   +61 24 08.81  .02666 .98446  88.5 23.7 124d  38
2019 12 10 06  19 19 08.378   +61 16 58.99  .02677 .98437  88.3 23.7 123d  38
2019 12 10 07  19 18 08.298   +61 09 51.15  .02689 .98428  88.1 23.7 123d  38
2019 12 10 08  19 17 09.175   +61 02 45.32  .02700 .98420  88.0 23.7 123d  38
2019 12 10 09  19 16 10.988   +60 55 41.52  .02712 .98411  87.8 23.7 123d  37
2019 12 10 10  19 15 13.717   +60 48 39.77  .02724 .98403  87.6 23.7 123d  37
2019 12 10 11  19 14 17.343   +60 41 40.08  .02735 .98394  87.5 23.8 123d  37
2019 12 10 12  19 13 21.846   +60 34 42.47  .02747 .98386  87.3 23.8 123d  37
2019 12 10 13  19 12 27.207   +60 27 46.96  .02758 .98377  87.1 23.8 122d  37
2019 12 10 14  19 11 33.409   +60 20 53.55  .02770 .98369  87.0 23.8 122d  36
2019 12 10 15  19 10 40.433   +60 14 02.26  .02782 .98360  86.8 23.8 122d  36
2019 12 10 16  19 09 48.262   +60 07 13.10  .02794 .98352  86.7 23.8 122d  36
2019 12 10 17  19 08 56.880   +60 00 26.07  .02805 .98343  86.5 23.9 122d  36
2019 12 10 18  19 08 06.269   +59 53 41.19  .02817 .98334  86.4 23.9 122d  36
2019 12 10 19  19 07 16.414   +59 46 58.45  .02829 .98326  86.2 23.9 122d  35